[[{"header":{"parameterUnit":"m.s-1","parameterCategory":1,"la1":30.2991,"la2":30.254,"lo1":-89.0895,"lo2":-89.0444,"dy":0.0017,"dx":0.0017,"nx":28,"ny":28,"refTime":"2023-07-30T09:00:00:Z","depth":0,"parameterNumber":2,"parameterNumberName":"U-component_of_WINDS"},"data":[0,0,0,0,0,0,0,0,0,0,0,0,0,0,0,0,0,0,0,0,0,0,0,0,0,0,0,0,0,0,0,0,0,0,0,0,0,0,0,0,0,0,0,0,0,0,0,0,0,0,0,0,0,0,0,0,0,0,0.554,0.5542,0,0.5703,0.5705,0.5707,0.5762,0.5761,0.5761,0.576,0.5928,0.5933,0.5938,0,0,0,0,0,0,0,0,0,0,0,0,0,0.5277,0.5281,0.554,0.5542,0.5544,0.5703,0.5705,0.5707,0.5762,0.5761,0.576,0.576,0.5927,0.5933,0.5939,0,0,0,0,0,0,0,0,0,0,0,0,0,0.541,0.5283,0.554,0.5591,0.5597,0.5702,0.5705,0.5708,0.5762,0.5761,0.576,0.5759,0.5925,0.5932,0.594,0.6007,0,0,0.5963,0.5966,0,0,0,0,0,0,0,0,0.5403,0.542,0.5581,0.5587,0.5594,0.5711,0.5674,0.5808,0.5762,0.5699,0.576,0.5759,0.5857,0.587,0.5903,0.6015,0.6022,0.5964,0.5968,0.5972,0.5974,0,0,0,0,0,0,0,0.5393,0.5413,0.5605,0.5583,0.5591,0.5605,0.5623,0.57,0.5782,0.5705,0.5709,0.5728,0.586,0.5895,0.5907,0.6025,0.5964,0.597,0.5975,0.5978,0.6199,0.62,0,0,0,0,0,0,0.5375,0.5405,0.5599,0.5609,0.5494,0.5611,0.5631,0.5675,0.5781,0.5796,0.5728,0.573,0.5883,0.5898,0.5913,0.5998,0.5972,0.5979,0.5983,0.6197,0.6199,0.62,0,0,0,0,0,0,0.537,0.5392,0.5593,0.5509,0.5535,0.5616,0.5665,0.5678,0.5713,0.5799,0.5814,0.5749,0.5883,0.5903,0.5983,0.6005,0.5982,0.5989,0.6196,0.6198,0.62,0.6168,0,0,0,0,0,0,0.5362,0.539,0.5416,0.5509,0.5539,0.5659,0.5667,0.5682,0.5726,0.573,0.5822,0.5837,0.5883,0.5971,0.599,0.6015,0.5995,0.6194,0.6197,0.6199,0.6168,0.6169,0.617,0,0,0,0,0,0.5352,0.5401,0.5417,0.544,0.5574,0.566,0.5678,0.573,0.5728,0.5755,0.581,0.5834,0.5999,0.5979,0.6001,0.6028,0.6193,0.6196,0.6199,0.6167,0.6169,0.617,0,0,0,0,0,0,0.531,0.5415,0.5433,0.5514,0.5578,0.5669,0.5705,0.573,0.5797,0.5797,0.586,0.588,0.5955,0.6,0.5975,0.6098,0.6098,0.6105,0.6066,0.6068,0.6069,0.6056,0.6002,0,0,0,0,0,0.531,0.5371,0.5459,0.5522,0.5553,0.5623,0.5663,0.5698,0.5767,0.5794,0.5855,0.5921,0.5988,0.6031,0.6097,0.6175,0.6195,0.6204,0.6205,0.6206,0.6211,0.6254,0.6259,0.621,0.621,0.621,0,0,0.5311,0.5375,0.541,0.5515,0.5569,0.563,0.5646,0.5711,0.5757,0.5804,0.5883,0.593,0.6008,0.6086,0.6124,0.6126,0.6229,0.6209,0.6209,0.6215,0.6258,0.6262,0.6266,0.6212,0.6211,0.6211,0,0,0.5343,0.5399,0.5456,0.5509,0.559,0.5636,0.565,0.5738,0.5771,0.5851,0.5887,0.5943,0.6057,0.6111,0.6153,0.6205,0.6229,0.6225,0.623,0.6271,0.6275,0.6279,0.6296,0.6302,0.623,0.623,0.623,0,0.5334,0.5428,0.5483,0.5545,0.559,0.5635,0.5693,0.5742,0.5841,0.587,0.5871,0.6014,0.607,0.6161,0.6174,0.6207,0.6224,0.6214,0.627,0.6275,0.6279,0.6296,0.6302,0.6229,0.6229,0.6229,0.6229,0,0.5412,0.5476,0.5513,0.5606,0.5655,0.5715,0.5779,0.5822,0.5852,0.5899,0.5979,0.6048,0.6128,0.6152,0.6183,0.6248,0.6246,0.6258,0.6258,0.6281,0.6298,0.6306,0.6227,0.6228,0.6228,0.6228,0,0,0.5422,0.5543,0.5556,0.5598,0.569,0.5741,0.5803,0.5881,0.5916,0.5983,0.6036,0.6131,0.6142,0.6189,0.6227,0.6263,0.6298,0.627,0.6273,0.6272,0.6372,0.6362,0.6368,0.6315,0.6316,0.6318,0.6365,0,0.5465,0.5577,0.5628,0.5717,0.5777,0.582,0.5874,0.5936,0.5981,0.6039,0.6089,0.6154,0.6164,0.6193,0.6231,0.6285,0.6319,0.6283,0.6364,0.6367,0.6342,0.6378,0.6367,0.6409,0.6372,0.6373,0.6374,0,0.553,0.5595,0.569,0.5774,0.5801,0.5849,0.5924,0.5978,0.6049,0.6079,0.6132,0.6168,0.6234,0.623,0.6323,0.6297,0.6334,0.6365,0.6368,0.6377,0.6371,0.6386,0.6423,0.6429,0.6385,0.6385,0.6384,0,0.5526,0.5638,0.5709,0.5744,0.5844,0.5876,0.5919,0.5989,0.6032,0.6098,0.6127,0.6199,0.6239,0.6295,0.6349,0.6341,0.6436,0.6437,0.6462,0.646,0.6479,0.6477,0.6521,0.6504,0.6504,0.6504,0.6504,0,0.5568,0.5624,0.5708,0.5751,0.5815,0.5873,0.5935,0.5982,0.6044,0.6097,0.6139,0.6188,0.6257,0.6315,0.6358,0.6427,0.6445,0.6471,0.6482,0.6467,0.6463,0.6491,0.6489,0.6506,0.6505,0.6505,0.6505,0,0.5573,0.5632,0.5712,0.58,0.5823,0.5866,0.5942,0.5985,0.6032,0.6099,0.6118,0.6191,0.6261,0.6321,0.6414,0.6442,0.6514,0.6527,0.6489,0.6494,0.6516,0.6512,0.6579,0.659,0.6566,0.6566,0.6566,0,0.5596,0.564,0.5732,0.577,0.5813,0.5874,0.5918,0.5977,0.6021,0.6105,0.6139,0.6212,0.6273,0.6383,0.6445,0.6516,0.653,0.6548,0.6541,0.6524,0.6529,0.6525,0.653,0.6548,0.6548,0.6548,0.6548,0,0.5628,0.5655,0.5717,0.5789,0.584,0.5899,0.596,0.5989,0.6059,0.6107,0.6178,0.6226,0.632,0.6392,0.6469,0.6514,0.6542,0.655,0.656,0.6544,0.652,0.6532,0.6489,0.6548,0.6548,0.6548,0.6548,0.6548,0.5643,0.5683,0.5754,0.5821,0.5873,0.5928,0.5973,0.6026,0.6086,0.6167,0.6198,0.6271,0.6341,0.6448,0.6492,0.655,0.6555,0.6569,0.6572,0.6574,0.6571,0.6511,0.6565,0.6565,0.6565,0.6565,0.6565,0,0.5676,0.5724,0.5785,0.5868,0.5921,0.5943,0.6012,0.6054,0.6118,0.618,0.6239,0.6321,0.6391,0.6458,0.6531,0.6564,0.6579,0.6581,0.6579,0.6589,0.6564,0.6548,0.6568,0.6568,0.6568,0.6568,0.6568,0.6568,0.57,0.577,0.5805,0.59,0.5948,0.6019,0.6056,0.6107,0.6157,0.6247,0.6304,0.6348,0.6412,0.649,0.6554,0.6572,0.6597,0.6595,0.6616,0.6592,0.6591,0.659,0.6575,0.66,0.66,0.6636,0.6637,0.6637]},{"header":{"parameterUnit":"m.s-1","parameterCategory":1,"la1":30.2991,"la2":30.254,"lo1":-89.0895,"lo2":-89.0444,"dy":0.0017,"dx":0.0017,"nx":28,"ny":28,"refTime":"2023-07-30T09:00:00:Z","depth":0,"parameterNumber":3,"parameterNumberName":"V-component_of_WINDS"},"data":[0,0,0,0,0,0,0,0,0,0,0,0,0,0,0,0,0,0,0,0,0,0,0,0,0,0,0,0,0,0,0,0,0,0,0,0,0,0,0,0,0,0,0,0,0,0,0,0,0,0,0,0,0,0,0,0,0,0,2.2821,2.2821,0,2.2756,2.2755,2.2755,2.2676,2.2674,2.2673,2.2672,2.2606,2.2605,2.2605,0,0,0,0,0,0,0,0,0,0,0,0,0,2.2878,2.2877,2.2821,2.2821,2.282,2.2756,2.2755,2.2754,2.2676,2.2674,2.2673,2.2671,2.2606,2.2605,2.2604,0,0,0,0,0,0,0,0,0,0,0,0,0,2.2837,2.2877,2.2822,2.2773,2.2768,2.2756,2.2755,2.2754,2.2676,2.2674,2.2672,2.2671,2.2606,2.2605,2.2604,2.2636,0,0,2.2602,2.2601,0,0,0,0,0,0,0,0,2.2839,2.2835,2.2781,2.2776,2.2771,2.2722,2.2751,2.2714,2.2677,2.2711,2.2672,2.267,2.2646,2.2642,2.2633,2.2633,2.263,2.2601,2.2601,2.26,2.26,0,0,0,0,0,0,0,2.2842,2.2837,2.2796,2.278,2.2774,2.2754,2.2746,2.2744,2.269,2.2708,2.2702,2.2695,2.2643,2.2635,2.2631,2.2629,2.2601,2.2601,2.26,2.26,2.2647,2.2649,0,0,0,0,0,0,2.2852,2.284,2.2798,2.2794,2.2801,2.2755,2.2746,2.274,2.2689,2.268,2.2697,2.2692,2.2637,2.2633,2.2629,2.2659,2.26,2.26,2.2599,2.2645,2.2647,2.2649,0,0,0,0,0,0,2.2854,2.2849,2.28,2.2815,2.2807,2.2756,2.2749,2.2739,2.2731,2.2681,2.2671,2.2698,2.2635,2.263,2.2634,2.2656,2.2599,2.2598,2.2643,2.2646,2.2648,2.2722,0,0,0,0,0,0,2.2856,2.285,2.2862,2.2816,2.2807,2.2807,2.2751,2.2739,2.2729,2.2722,2.268,2.2671,2.2634,2.2636,2.2633,2.2654,2.2598,2.2641,2.2644,2.2648,2.2718,2.2727,2.2736,0,0,0,0,0,2.2858,2.2886,2.2863,2.2858,2.282,2.2808,2.2803,2.2759,2.2732,2.2742,2.271,2.2672,2.2655,2.2637,2.2633,2.2654,2.2639,2.2643,2.2647,2.2714,2.2725,2.2735,0,0,0,0,0,0,2.2936,2.2879,2.2853,2.2867,2.2843,2.2795,2.2807,2.2773,2.2757,2.2751,2.2697,2.2688,2.2698,2.2677,2.2658,2.268,2.2641,2.2645,2.2693,2.2704,2.2712,2.2716,2.2597,0,0,0,0,0,2.2955,2.295,2.29,2.2917,2.2907,2.2859,2.2852,2.2821,2.2794,2.2783,2.2751,2.2727,2.2715,2.2709,2.2696,2.2715,2.2703,2.2728,2.2737,2.2744,2.2747,2.2753,2.2762,2.2663,2.2663,2.2663,0,0,2.2993,2.2962,2.2962,2.2932,2.291,2.2905,2.2851,2.2849,2.2845,2.2783,2.2783,2.276,2.2729,2.274,2.2743,2.2722,2.2772,2.2749,2.2756,2.2754,2.2758,2.2767,2.2776,2.2666,2.2665,2.2665,0,0,2.306,2.3037,2.3047,2.3026,2.2993,2.2961,2.2964,2.2921,2.2902,2.2902,2.2855,2.2849,2.2831,2.281,2.2797,2.2856,2.282,2.2854,2.2899,2.2905,2.2913,2.2919,2.2937,2.2945,2.2857,2.2857,2.2857,0,2.3112,2.3103,2.3057,2.3057,2.3044,2.2988,2.2997,2.2979,2.2944,2.2936,2.2914,2.2889,2.2864,2.2868,2.2882,2.2875,2.2874,2.2857,2.2916,2.2922,2.2927,2.2944,2.2951,2.2861,2.2861,2.286,2.286,0,2.3167,2.3162,2.3174,2.314,2.3129,2.3134,2.3088,2.3083,2.3052,2.3023,2.3022,2.2991,2.2969,2.2969,2.2939,2.2968,2.2955,2.2926,2.2885,2.2941,2.2956,2.2962,2.2867,2.2866,2.2864,2.2863,0,0,2.3279,2.322,2.3224,2.3207,2.3167,2.3161,2.3164,2.3142,2.3137,2.3116,2.3114,2.31,2.3071,2.3057,2.3025,2.3031,2.3075,2.2999,2.2998,2.3012,2.3101,2.3122,2.3131,2.3052,2.3054,2.3054,2.3103,0,2.3336,2.3335,2.3294,2.3304,2.3298,2.3245,2.3246,2.3221,2.3194,2.3184,2.3154,2.3143,2.3108,2.3098,2.3102,2.3069,2.3092,2.3066,2.3049,2.3049,2.3055,2.3139,2.3161,2.3208,2.3109,2.311,2.311,0,2.3402,2.3382,2.3393,2.335,2.3345,2.3348,2.3323,2.3315,2.3286,2.3265,2.3249,2.3212,2.321,2.3174,2.3169,2.3152,2.3143,2.3126,2.3127,2.3121,2.3081,2.3132,2.3223,2.3229,2.312,2.3119,2.3118,0,2.3479,2.3456,2.3458,2.3446,2.3397,2.3399,2.3379,2.3347,2.3337,2.3316,2.3308,2.3288,2.3276,2.3261,2.3219,2.3198,2.3219,2.318,2.32,2.3201,2.3204,2.3204,2.3292,2.3204,2.3204,2.3204,2.3204,0,2.3545,2.3552,2.3491,2.3492,2.3499,2.3451,2.3459,2.3434,2.3406,2.34,2.3355,2.335,2.3297,2.3287,2.3255,2.3254,2.325,2.3232,2.3223,2.3234,2.3236,2.3226,2.322,2.3206,2.3205,2.3205,2.3204,0,2.3631,2.359,2.3589,2.3543,2.3532,2.3538,2.3498,2.3497,2.3467,2.3461,2.3456,2.3409,2.3394,2.3352,2.3327,2.3305,2.3313,2.3298,2.3323,2.3316,2.3338,2.3335,2.3419,2.3426,2.3337,2.3338,2.3339,0,2.3674,2.3678,2.3633,2.3626,2.3607,2.3597,2.3585,2.3539,2.3529,2.3495,2.3497,2.3479,2.3461,2.344,2.3403,2.3383,2.3365,2.3396,2.3361,2.3372,2.3362,2.3361,2.336,2.3402,2.3404,2.3405,2.3405,0,2.3754,2.3734,2.3719,2.3697,2.3685,2.3666,2.3643,2.364,2.3588,2.3579,2.3563,2.355,2.3523,2.3505,2.3479,2.3457,2.3422,2.3417,2.342,2.343,2.3443,2.3434,2.334,2.3414,2.3413,2.3413,2.3412,2.3412,2.3818,2.3818,2.3786,2.377,2.3749,2.3729,2.3725,2.3695,2.3681,2.3655,2.3629,2.3616,2.3584,2.3546,2.3527,2.3515,2.3496,2.3502,2.3502,2.3504,2.3508,2.3448,2.351,2.351,2.351,2.3509,2.3509,0,2.3893,2.3869,2.3856,2.3826,2.3814,2.3783,2.3757,2.3749,2.3737,2.3712,2.3695,2.3676,2.3658,2.3619,2.3597,2.3595,2.3578,2.359,2.3589,2.3584,2.3527,2.3525,2.3604,2.3604,2.3604,2.3604,2.3604,2.3604,2.393,2.3929,2.3905,2.3892,2.3868,2.3855,2.3842,2.3823,2.3802,2.3783,2.3767,2.3743,2.3711,2.3686,2.3668,2.3657,2.3649,2.3667,2.365,2.3597,2.3588,2.358,2.3577,2.3666,2.3666,2.3707,2.3708,2.3708]}]]